Location: Observatoire
(46.1952°N, 5.3391°E)
Time: 07:19:13
(UTC+01:00)

Explorer 7 - Pass Details

Date: 26 February 2026
Orbit: 430 x 541 km, 50.2° (Epoch: 9 March)

Event Time Altitude Azimuth Distance (km) Brightness Sun altitude
Rises 17:19:22 0° 293° (WNW) 2,455 10.9 9.2°
Reaches altitude 10° 17:21:28 10° 292° (WNW) 1,597 10.0 8.9°
Maximum altitude 17:25:05 82° 205° (SSW) 478 6.8 8.3°
Drops below altitude 10° 17:28:49 10° 119° (ESE) 1,656 8.9 7.7°
Sets 17:31:02 0° 118° (ESE) 2,555 9.8 7.4°
